St. Johnsbury, VT

12:32 AM EDT on September 21, 2017 (GMT -0400)
St. Johnsbury

Weather History for K1V4 - May, 2014

Change the Weather History Date:

Thursday, May 1, 2014

  Actual Average Record
Temperature  
Mean Temperature 52 °F 51 °F  
Max Temperature 66 °F 64 °F 86 °F (1970)
Min Temperature 38 °F 38 °F 23 °F (1922)
Degree Days  
Heating Degree Days 13 14  
Month to date heating degree days 13 14  
Since 1 July heating degree days 8142 7433  
Cooling Degree Days 0 0  
Month to date cooling degree days 0 0  
Year to date cooling degree days 0 1  
Moisture  
Dew Point 44 °F    
Average Humidity 78    
Maximum Humidity 100    
Minimum Humidity 56    
Precipitation  
Precipitation 0.47 in 0.10 in 0.93 in (1924)
Month to date precipitation 0.47 0.10  
Year to date precipitation 11.55 10.15  
Sea Level Pressure  
Sea Level Pressure 29.79 in    
Wind  
Wind Speed - (North)    
Max Wind Speed -    
Max Gust Speed -    
T = Trace of Precipitation, MM = Missing Value Source: NWS Daily Summary

Daily Weather History Graph

Daily Weather History Graph

Search for Another Location

Airport or City:

Trip Planner

Search our weather history database for the weather conditions in past years. The results will help you decide how hot, cold, wet, or windy it might be!

Date:

Astronomy

May. 01, 2014 Rise Set
Actual Time 5:38 AM EDT 7:52 PM EDT
Civil Twilight 5:06 AM EDT 8:24 PM EDT
Nautical Twilight 4:27 AM EDT 9:04 PM EDT
Astronomical Twilight 3:43 AM EDT 9:48 PM EDT
Moon 7:21 AM EDT (5/1) 10:25 PM EDT (5/1)
Length of Visible Light 15h 17m
Length of Day
14h 13m
Waxing Crescent, 6% of the Moon is Illuminated
May 1
Waxing Crescent
May 6
First Quarter
May 14
Full
May 21
Last Quarter
May 28
New

Hourly Weather History & Observations

Time (EDT) Temp. Dew Point Humidity Pressure Visibility Wind Dir Wind Speed Gust Speed Precip Events Conditions
12:54 AM 39.0 °F 36.0 °F 89% 30.10 in - North - - N/A   Unknown
1:54 AM 37.9 °F 36.0 °F 93% 30.06 in - North - - 0.01 in   Unknown
2:54 AM 39.0 °F 37.0 °F 93% 30.02 in - North - - N/A   Unknown
3:54 AM 39.0 °F 37.0 °F 93% 29.98 in - North - - 0.03 in   Unknown
4:54 AM 39.0 °F 37.9 °F 96% 29.94 in - North - - 0.04 in   Unknown
5:54 AM 39.9 °F 37.9 °F 93% 29.92 in - North - - 0.01 in   Unknown
6:54 AM 39.9 °F 37.9 °F 93% 29.89 in - North - - N/A   Unknown
7:54 AM 41.0 °F 39.9 °F 96% 29.86 in - North - - 0.15 in   Unknown
8:54 AM 43.0 °F 41.0 °F 93% 29.83 in - North - - 0.07 in   Unknown
9:54 AM 46.0 °F 42.1 °F 86% 29.79 in - North - - N/A   Unknown
10:54 AM 48.0 °F 43.0 °F 83% 29.79 in - North - - N/A   Unknown
11:54 AM 50.0 °F 45.0 °F 83% 29.76 in - North - - N/A   Unknown
12:54 PM 52.0 °F 45.0 °F 77% 29.74 in - North - - N/A   Unknown
1:54 PM 55.9 °F 46.9 °F 72% 29.71 in - North - - N/A   Unknown
2:54 PM 57.9 °F 48.0 °F 70% 29.68 in - North - - N/A   Unknown
3:54 PM 63.0 °F 48.9 °F 60% 29.65 in - North - - N/A   Unknown
4:54 PM 64.9 °F 48.9 °F 56% 29.62 in - North - - N/A   Unknown
5:54 PM 64.9 °F 50.0 °F 58% 29.60 in - North - - N/A   Unknown
6:54 PM 57.9 °F 51.1 °F 78% 29.64 in - North - - N/A   Unknown
7:54 PM 55.0 °F 54.0 °F 96% 29.66 in - North - - 0.13 in   Unknown
8:54 PM 55.0 °F 53.1 °F 93% 29.67 in - North - - N/A   Unknown
9:54 PM 54.0 °F 53.1 °F 97% 29.68 in - North - - 0.03 in   Unknown
10:54 PM 52.0 °F 42.1 °F 69% 29.71 in - North - - N/A   Unknown
11:54 PM 48.9 °F 45.0 °F 86% 29.69 in - North - - N/A   Unknown